This is the latest recevied weather packets stored in our database for station/object KC8UZG. If no packets are shown the sender has not sent any weather packets the latest 10 day(s).
| Time | Temp. | Humidity | Pressure | Rain* | Wind** | Luminosity | Snow |
|---|---|---|---|---|---|---|---|
| 1778057140 | 6.11° C | 99% | - | 0.25 mm | - | 0 W/m² | - |
| 1778056519 | 6.11° C | 99% | - | 0.25 mm | - | 0 W/m² | - |
| 1778055926 | 6.11° C | 99% | - | 0.51 mm | - | 0 W/m² | - |
| 1778055331 | 6.11° C | 99% | - | 1.02 mm | - | 0 W/m² | - |
| 1778054737 | 6.11° C | 99% | - | 1.27 mm | - | 0 W/m² | - |
| 1778054116 | 6.11° C | 99% | - | 1.27 mm | - | 0 W/m² | - |
| 1778053521 | 6.11° C | 99% | 1007.6 hPa | 1.02 mm | - | 0 W/m² | - |
| 1778052928 | 6.11° C | 99% | 1007.6 hPa | 1.02 mm | - | 0 W/m² | - |
| 1778052335 | 6.11° C | 99% | 1007.6 hPa | 1.27 mm | - | 0 W/m² | - |
| 1778051740 | 6.11° C | 99% | - | 0.76 mm | - | 0 W/m² | - |
| 1778051119 | 6.67° C | 99% | - | 0.76 mm | - | 0 W/m² | - |
| 1778050524 | 6.67° C | 99% | - | 1.27 mm | - | 0 W/m² | - |
| 1778049931 | 6.67° C | 99% | 1007.3 hPa | 1.52 mm | - | 0 W/m² | - |
| 1778049337 | 6.67° C | 99% | 1007.5 hPa | 2.03 mm | - | 0 W/m² | - |
| 1778048715 | 6.67° C | 99% | 1007.6 hPa | 2.03 mm | - | 0 W/m² | - |
| 1778048122 | 7.22° C | 99% | 1007.6 hPa | 2.79 mm | - | 0 W/m² | - |
| 1778047528 | 7.22° C | 99% | 1007.3 hPa | 3.81 mm | - | 0 W/m² | - |
| 1778046933 | 7.78° C | 99% | 1007.2 hPa | 4.57 mm | - | 0 W/m² | - |
| 1778046340 | 7.78° C | 99% | 1007.3 hPa | 5.59 mm | - | 0 W/m² | - |
| 1778045718 | 7.78° C | 99% | 1007.3 hPa | 5.59 mm | - | 0 W/m² | - |
| 1778045124 | 7.78° C | 99% | 1007.4 hPa | 5.59 mm | - | 0 W/m² | - |
| 1778044530 | 7.78° C | 99% | 1007.8 hPa | 5.08 mm | - | 0 W/m² | - |
| 1778043937 | 7.78° C | 99% | 1008.1 hPa | 4.32 mm | - | 0 W/m² | - |
| 1778043315 | 7.78° C | 99% | 1007.8 hPa | 3.56 mm | - | 0 W/m² | - |
| 1778042722 | 7.78° C | 99% | 1007.5 hPa | 3.81 mm | - | 0 W/m² | - |
* Rain latest hour (hover to see other rain measurements)
** Current wind speed in m/s (hover to see current wind gust speed)